This is the latest recevied weather packets stored in our database for station/object KK6MIG-13. If no packets are shown the sender has not sent any weather packets the latest 10 day(s).
| Time | Temp. | Humidity | Pressure | Rain* | Wind** | Luminosity | Snow |
|---|---|---|---|---|---|---|---|
| 1787788967 | 18.33° C | 33% | 1012.8 hPa | 0 mm | - | 506 W/m² | - |
| 1787788907 | 18.33° C | 35% | 1012.7 hPa | 0 mm | - | 510 W/m² | - |
| 1787788846 | 18.33° C | 35% | 1012.7 hPa | 0 mm | - | 515 W/m² | - |
| 1787788780 | 18.33° C | 36% | 1012.7 hPa | 0 mm | - | 519 W/m² | - |
| 1787788720 | 18.33° C | 40% | 1012.8 hPa | 0 mm | - | 522 W/m² | - |
| 1787788661 | 18.33° C | 37% | 1012.8 hPa | 0 mm | - | 526 W/m² | - |
| 1787788601 | 18.33° C | 33% | 1012.8 hPa | 0 mm | - | 527 W/m² | - |
| 1787788540 | 18.33° C | 31% | 1012.8 hPa | 0 mm | - | 531 W/m² | - |
| 1787788476 | 18.33° C | 31% | 1012.8 hPa | 0 mm | - | 534 W/m² | - |
| 1787788415 | 18.33° C | 30% | 1012.9 hPa | 0 mm | - | 538 W/m² | - |
| 1787788354 | 18.33° C | 32% | 1012.9 hPa | 0 mm | - | 541 W/m² | - |
| 1787788294 | 18.33° C | 32% | 1013 hPa | 0 mm | - | 541 W/m² | - |
| 1787788234 | 18.33° C | 35% | 1013 hPa | 0 mm | - | 547 W/m² | - |
| 1787788168 | 18.33° C | 34% | 1013 hPa | 0 mm | - | 552 W/m² | - |
| 1787788108 | 18.33° C | 33% | 1013 hPa | 0 mm | - | 554 W/m² | - |
| 1787788048 | 18.33° C | 32% | 1013.1 hPa | 0 mm | - | 557 W/m² | - |
| 1787787989 | 18.33° C | 29% | 1013 hPa | 0 mm | - | 559 W/m² | - |
| 1787787928 | 18.33° C | 31% | 1013 hPa | 0 mm | - | 564 W/m² | - |
| 1787787863 | 17.78° C | 31% | 1013 hPa | 0 mm | - | 568 W/m² | - |
| 1787787802 | 17.78° C | 33% | 1013 hPa | 0 mm | - | 570 W/m² | - |
| 1787787742 | 17.78° C | 33% | 1013 hPa | 0 mm | - | 571 W/m² | - |
| 1787787688 | 17.78° C | 35% | 1013 hPa | 0 mm | - | 577 W/m² | - |
| 1787787620 | 18.33° C | 33% | 1013 hPa | 0 mm | - | 580 W/m² | - |
| 1787787494 | 18.33° C | 37% | 1013 hPa | 0 mm | - | 585 W/m² | - |
| 1787787435 | 18.33° C | 36% | 1013 hPa | 0 mm | - | 587 W/m² | - |
* Rain latest hour (hover to see other rain measurements)
** Current wind speed in m/s (hover to see current wind gust speed)